Kingman, AZ

6:08 PM MST on February 24, 2017 (GMT -0700)
Kingman

Weather History for KIGM - November, 2012

Change the Weather History Date:

Monday, November 5, 2012

  Actual Average Record
Temperature  
Mean Temperature 63 °F 55 °F  
Max Temperature 81 °F 69 °F 87 °F (1921)
Min Temperature 44 °F 41 °F 28 °F (1924)
Degree Days  
Heating Degree Days 2 10  
Month to date heating degree days 22 48  
Since 1 July heating degree days 108 187  
Cooling Degree Days 0 0  
Month to date cooling degree days 0 0  
Year to date cooling degree days 2297 2092  
Growing Degree Days 12 (Base 50)    
Moisture  
Dew Point 24 °F    
Average Humidity 24    
Maximum Humidity 36    
Minimum Humidity 12    
Precipitation  
Precipitation 0.00 in 0.03 in 0.62 in (1960)
Month to date precipitation 0.00 0.14  
Year to date precipitation 6.88 7.14  
Sea Level Pressure  
Sea Level Pressure 30.08 in    
Wind  
Wind Speed 8 mph (ENE)    
Max Wind Speed 14 mph    
Max Gust Speed 17 mph    
Visibility 10 miles    
Events      
T = Trace of Precipitation, MM = Missing Value Source: NWS Daily Summary

Daily Weather History Graph

Daily Weather History Graph

Search for Another Location

Airport or City:

Trip Planner

Search our weather history database for the weather conditions in past years. The results will help you decide how hot, cold, wet, or windy it might be!

Date:

Astronomy

Nov. 05, 2012 Rise Set
Actual Time 7:01 AM MST 5:36 PM MST
Civil Twilight 6:35 AM MST 6:03 PM MST
Nautical Twilight 6:04 AM MST 6:33 PM MST
Astronomical Twilight 5:35 AM MST 7:03 PM MST
Moon 11:17 PM MST (11/5) 12:22 PM MST (11/5)
Length of Visible Light 11h 28m
Length of Day
10h 35m
Waning Gibbous, 62% of the Moon is Illuminated
Nov 5
Waning Gibbous
Nov 6
Last Quarter
Nov 13
New
Nov 20
First Quarter
Nov 28
Full

Hourly Weather History & Observations

Time (MST) Temp. Dew Point Humidity Pressure Visibility Wind Dir Wind Speed Gust Speed Precip Events Conditions
12:51 AM 52.0 °F 19.9 °F 28% 30.10 in 10.0 mi East 6.9 mph - N/A   Clear
1:51 AM 52.0 °F 21.0 °F 30% 30.09 in 10.0 mi SE 6.9 mph - N/A   Clear
2:51 AM 52.0 °F 21.0 °F 30% 30.09 in 10.0 mi East 6.9 mph - N/A   Clear
3:51 AM 50.0 °F 21.0 °F 32% 30.09 in 10.0 mi East 5.8 mph - N/A   Clear
4:51 AM 52.0 °F 21.9 °F 31% 30.09 in 10.0 mi ENE 4.6 mph - N/A   Clear
5:51 AM 48.0 °F 21.9 °F 36% 30.12 in 10.0 mi ENE 3.5 mph - N/A   Clear
6:51 AM 48.9 °F 23.0 °F 36% 30.14 in 10.0 mi NE 3.5 mph - N/A   Clear
7:51 AM 51.1 °F 23.0 °F 33% 30.15 in 10.0 mi East 3.5 mph - N/A   Clear
8:51 AM 63.0 °F 24.1 °F 23% 30.15 in 10.0 mi NE 3.5 mph - N/A   Clear
9:51 AM 66.9 °F 24.1 °F 20% 30.14 in 10.0 mi NNE 3.5 mph - N/A   Clear
10:51 AM 72.0 °F 24.1 °F 17% 30.13 in 10.0 mi North 13.8 mph - N/A   Clear
11:51 AM 75.0 °F 24.1 °F 15% 30.11 in 10.0 mi North 8.1 mph - N/A   Clear
12:51 PM 77.0 °F 24.1 °F 14% 30.06 in 10.0 mi NNW 10.4 mph 17.3 mph N/A   Clear
1:51 PM 79.0 °F 23.0 °F 13% 30.04 in - North 11.5 mph - N/A   Clear
2:51 PM 80.1 °F 23.0 °F 12% 30.02 in 10.0 mi North 5.8 mph - N/A   Clear
3:51 PM 80.1 °F 24.1 °F 13% 30.01 in 10.0 mi North 11.5 mph - N/A   Unknown
4:51 PM 77.0 °F 25.0 °F 15% 30.02 in 10.0 mi North 11.5 mph - N/A   Clear
5:51 PM 66.9 °F 26.1 °F 21% 30.04 in 10.0 mi East 6.9 mph - N/A   Clear
6:51 PM 63.0 °F 27.0 °F 26% 30.06 in 10.0 mi SE 11.5 mph - N/A   Clear
7:51 PM 60.1 °F 27.0 °F 28% 30.07 in 10.0 mi ESE 10.4 mph - N/A   Clear
8:51 PM 57.9 °F 27.0 °F 31% 30.05 in 10.0 mi ESE 10.4 mph - N/A   Clear
9:51 PM 59.0 °F 27.0 °F 29% 30.06 in 10.0 mi ESE 10.4 mph - N/A   Clear
10:51 PM 57.9 °F 27.0 °F 31% 30.04 in 10.0 mi East 8.1 mph - N/A   Clear
11:51 PM 55.0 °F 27.0 °F 34% 30.04 in 10.0 mi East 4.6 mph - N/A   Clear